Location: Unspecified
(43.4680°N, 87.1740°E)
Time: 21:13:31
(UTC+00:00)

MSX - Pass Details

Date: 17 April 2021
Orbit: 895 x 905 km, 98.8° (Epoch: 12 May)

Event Time Altitude Azimuth Distance (km) Brightness Sun altitude
Rises 21:35:30 0° 11° (N) 3,526 7.7 -18.5°
Reaches altitude 10° 21:37:55 10° 9° (N) 2,583 6.8 -18.2°
Maximum altitude 21:43:38 68° 288° (WNW) 967 3.8 -17.3°
Enters shadow 21:47:19 23° 210° (SSW) 1,826 4.9 -16.8°
